[[{"header":{"parameterUnit":"m.s-1","parameterCategory":1,"la1":30.2992,"la2":30.254,"lo1":-89.0895,"lo2":-89.0443,"dy":0.0025,"dx":0.0025,"nx":19,"ny":19,"refTime":"2026-03-11T21:00:00:Z","depth":0,"parameterNumber":2,"parameterNumberName":"U-component_of_WINDS"},"data":[0,0,0,0.0287,0.0285,0.0162,0.0161,0.0024,0.0023,0,0,0,0,0,0,0,0,0,0,0,0.0336,0.0336,0.0288,0.0285,0.0162,0.0161,0.0024,0.0023,0,0,0,0,0,0,0,0,0,0,0,0.0336,0.0336,0.0335,0.0284,0.0162,0.0161,0.0025,0.011,0,0,0,0,0,0,0,0,0,0,0.0226,0.0283,0.0336,0.0335,0.0284,0.0162,0.0161,0.0114,0.0105,0.0089,0,0.0078,0,0.0049,0.0015,0.0015,0,0,0,0.0275,0.0291,0.0247,0.0335,0.0283,0.0162,0.0215,0.0109,0.0098,0.0077,0.0076,0.007,0.0046,0.0015,0.0014,-0.0047,-0.0046,0,0,0.0282,0.032,0.0254,0.0241,0.0261,0.0219,0.0211,0.0102,0.0103,0.0075,0.0066,0.0044,0.0014,0.0013,-0.0047,-0.0046,0,0,0,0.0308,0.0326,0.0284,0.0247,0.0223,0.0215,0.0206,0.0108,0.0091,0.0065,0.0042,0.0013,0.0012,-0.0047,-0.0047,-0.0001,0,0,0,0.0312,0.0341,0.0287,0.0309,0.0226,0.0164,0.0215,0.0099,0.0085,0.0043,0.0013,0.0011,-0.0047,-0.0047,-0.0002,0.0015,0,0,0,0.034,0.0344,0.033,0.0312,0.026,0.0165,0.0141,0.0095,0.0072,0.0015,0.001,-0.0047,-0.0047,-0.0004,0.0012,0.0011,0,0,0,0.0381,0.0372,0.0332,0.0313,0.0262,0.0195,0.0142,0.009,0.0046,0.0012,-0.0047,-0.0047,-0.0004,0.001,0.001,0.0017,0.0024,0,0,0.0391,0.0375,0.0361,0.0321,0.0271,0.021,0.0166,0.009,0.0049,-0.0012,-0.0015,-0.0002,0.0012,0.0011,0.0047,0.0053,0,0,0,0.0377,0.0368,0.0346,0.0307,0.0248,0.02,0.0126,0.0098,0.0044,0.0025,-0.0004,0.0003,0.0,0.0002,0.0007,0.0003,-0.0044,-0.0044,-0.0044,0.0446,0.0395,0.0369,0.0304,0.0266,0.0191,0.0156,0.0105,0.0063,0.0057,0.0039,0.0067,0.0071,0.0074,0.0071,0.0038,0.0038,0.0038,0.0038,0.0457,0.0436,0.0382,0.0338,0.0284,0.0246,0.0173,0.0145,0.0102,0.0076,0.0072,0.0049,0.0082,0.0076,0.0041,0.0041,0.004,0.004,0.004,0.0497,0.0478,0.0445,0.0384,0.0342,0.0276,0.0238,0.0189,0.0143,0.0139,0.0115,0.0114,0.0108,0.0131,0.0131,0.0131,0.0131,0.0131,0.0131,0.0553,0.0513,0.0487,0.0426,0.0395,0.0348,0.0273,0.0241,0.0193,0.0161,0.0161,0.0121,0.0095,0.009,0.0133,0.0132,0.0132,0.0132,0.0132,0.0584,0.0569,0.0529,0.0499,0.0423,0.0386,0.0325,0.0265,0.0231,0.0214,0.0175,0.0163,0.0143,0.0138,0.0134,0.0185,0.0185,0.0185,0.0185,0.0618,0.0603,0.0552,0.0507,0.0456,0.0398,0.0354,0.0296,0.0233,0.021,0.0195,0.0185,0.0183,0.0163,0.0159,0.0154,0.0209,0.0209,0.0209,0.0635,0.0613,0.0586,0.0525,0.0463,0.0411,0.0369,0.0318,0.0244,0.0209,0.019,0.0189,0.0172,0.0169,0.0135,0.0128,0.0118,0,0]},{"header":{"parameterUnit":"m.s-1","parameterCategory":1,"la1":30.2992,"la2":30.254,"lo1":-89.0895,"lo2":-89.0443,"dy":0.0025,"dx":0.0025,"nx":19,"ny":19,"refTime":"2026-03-11T21:00:00:Z","depth":0,"parameterNumber":3,"parameterNumberName":"V-component_of_WINDS"},"data":[0,0,0,5.6496,5.6502,5.6822,5.6823,5.7204,5.7207,0,0,0,0,0,0,0,0,0,0,0,5.6384,5.6386,5.6495,5.6503,5.6822,5.6823,5.7203,5.7207,0,0,0,0,0,0,0,0,0,0,0,5.6383,5.6386,5.6388,5.6504,5.6821,5.6823,5.7203,5.6971,0,0,0,0,0,0,0,0,0,0,5.6666,5.6547,5.6385,5.6388,5.6506,5.6821,5.6823,5.6961,5.6986,5.7048,0,5.7098,0,5.7159,5.7231,5.7232,0,0,0,5.6515,5.6526,5.6627,5.6389,5.6508,5.682,5.6681,5.6975,5.7003,5.7081,5.7104,5.7119,5.7165,5.7233,5.7235,5.7554,5.7555,0,0,5.6497,5.6432,5.6608,5.6645,5.6594,5.6671,5.6691,5.6993,5.7013,5.7105,5.7128,5.7171,5.7236,5.7238,5.7553,5.7554,0,0,0,5.6438,5.6419,5.6514,5.6628,5.6688,5.668,5.6703,5.7,5.7036,5.7133,5.7176,5.7238,5.7242,5.7552,5.7554,5.7538,0,0,0,5.6428,5.6385,5.6506,5.6469,5.6682,5.6848,5.6703,5.7015,5.7052,5.7174,5.7238,5.7245,5.7551,5.7553,5.7537,5.7542,0,0,0,5.6369,5.6379,5.6419,5.6465,5.6601,5.6845,5.6899,5.7025,5.7078,5.7233,5.7246,5.7551,5.7553,5.7535,5.7539,5.7609,0,0,0,5.6287,5.6398,5.6418,5.656,5.6597,5.6832,5.6898,5.7076,5.7207,5.724,5.7552,5.7554,5.7535,5.7538,5.7607,5.7657,5.7671,0,0,5.6392,5.6409,5.6497,5.6524,5.674,5.6789,5.7003,5.7183,5.7256,5.745,5.7459,5.7537,5.7539,5.7609,5.7771,5.7782,0,0,0,5.6509,5.6572,5.6643,5.6766,5.6907,5.703,5.7185,5.7253,5.7422,5.7343,5.7582,5.7586,5.7629,5.7656,5.7665,5.7708,5.7563,5.7562,5.7562,5.6563,5.6653,5.6807,5.6936,5.7054,5.7215,5.732,5.7438,5.7491,5.7547,5.7605,5.7693,5.7722,5.773,5.7773,5.7638,5.7638,5.7638,5.7638,5.6726,5.6831,5.6903,5.7079,5.7173,5.7321,5.7481,5.7515,5.7667,5.7655,5.7698,5.7678,5.7739,5.7781,5.7637,5.7637,5.7637,5.7637,5.7637,5.6773,5.6839,5.6921,5.7111,5.7247,5.7374,5.7518,5.7598,5.7675,5.7717,5.7789,5.779,5.7802,5.7746,5.7746,5.7746,5.7746,5.7747,5.7747,5.6789,5.6882,5.6995,5.7157,5.7249,5.738,5.7544,5.7637,5.776,5.7807,5.7808,5.7858,5.7728,5.7694,5.7752,5.7751,5.7751,5.775,5.775,5.6923,5.6907,5.708,5.7172,5.7372,5.7504,5.7605,5.7787,5.7875,5.7945,5.7987,5.7877,5.7899,5.7893,5.7866,5.7965,5.7965,5.7965,5.7965,5.6963,5.6984,5.7181,5.7324,5.7473,5.7584,5.7779,5.7909,5.804,5.8101,5.8099,5.8069,5.8059,5.8088,5.8077,5.8053,5.8198,5.8199,5.8199,5.7052,5.7091,5.7241,5.7372,5.7535,5.7674,5.7861,5.8022,5.8168,5.821,5.8151,5.8141,5.8095,5.8075,5.8114,5.8096,5.8054,0,0]}]]